CHINASAT 6C (ZX 6C) (44067 NORAD) Tracking and Keplerian Element Data

This shows tracking and keplerian element data for the satellite.

Feedback or suggestion? Click here.




ElementValue
Catalog44067
NameCHINASAT 6C (ZX 6C)
Epoch Orbit19
Epoch Day78.59845481
Epoch Year2019
RAAN266.389
Inclination0.1246
Eccentricity0.0003539
Argument of Perigee35.6582
Mean Anonmoly220.1849
Mean Motion1.00271975
Decay Rate-3.62E-06
L11 44067U 19012A 19078.59845481 -.00000362 00000-0 00000+0 0 9994
L22 44067 0.1246 266.3890 0003539 35.6582 220.1849 1.00271975 197

Live tracking and technical data element details for CHINASAT 6C (ZX 6C) (NORAD 44067). CHINASAT 6C (ZX 6C) can be tracked NOW for your location showing map with azimuth and elevation plus other details from your city location.

Track the satellite on the map from your city or location and see movement details for azimuth, elevation, latitude, longitude, range, height, and movement on the map or in text.







IsCatalogInMostPopularTable: catalog: 44067, numindb: 2
Update: records affected: 1



GetName: 44067 CHINASAT 6C (ZX 6C)

Hit Count: updated at: Sat, 23 Mar 2019 00:07:43 GMT